Location: Unspecified
(46.0725°N, 13.7344°E)
Time: 14:26:35
(UTC+01:00)

Cosmos 2058 - Pass Details

Date: 30 October 2019
Orbit: 563 x 583 km, 82.5° (Epoch: 13 November)

Event Time Altitude Azimuth Distance (km) Brightness Sun altitude
Rises 17:18:19 0° 358° (N) 2,814 6.3 -4.8°
Reaches altitude 10° 17:20:40 10° 7° (N) 1,907 5.4 -5.2°
Maximum altitude 17:24:35 37° 75° (ENE) 917 3.5 -5.8°
Drops below altitude 10° 17:28:26 10° 143° (SE) 1,882 5.3 -6.5°
Sets 17:30:44 0° 152° (SSE) 2,772 6.2 -6.9°
